Starlink 3564

operational
NORAD ID: 52302 Int'l Des: 2022-041 Owner: SPXS Country: US Constellation: starlink
LEOCIRCULAR

About Starlink 3564

Description loading...

Live Position

Loading 3D Globe...

Upcoming Passes

Altitude History

Altitude vs Time

uPlot chart will show altitude changes over time

Two-Line Element Set

1 52302U 22041AT 25351.57608089 -.00000795 00000-0 -31875-4 0 9991
2 52302 53.2181 97.7423 0001280 94.6379 265.4759 15.08833965202241
Epoch: Dec 17, 2025 • Age: 16 hours

Current Status

Altitude 544.6 km
Velocity 7.60 km/s
Sub-Earth Point 49.59°N, 33.68°E
Launch Date Apr 21, 2022
Age 3.6 years
Type internet

Technical Details

Classification Payload
Mass 297.00 kg
Dry Mass 275.00 kg
Total Mass 297.00 kg
Length 0.20 m
Diameter 2.80 m
Span 9.00 m
Shape Box + pan
Manufacturer SPXS
Bus Type Starlink
Phase Status In Orbit
Owner/State SPXS/US

Large Constellations

Loading constellations...